Location: Aciu?a
(46.2833°N, 22.4500°E)
Time: 02:33:50
(UTC+00:00)

Iridium 4 Rocket - Pass Details

Date: 25 October 2021
Orbit: 586 x 903 km, 86.9° (Epoch: 30 November)

Event Time Altitude Azimuth Distance (km) Brightness Sun altitude
Rises 16:15:02 0° 1° (N) 3,001 6.5 -9.0°
Reaches altitude 10° 16:17:15 10° 5° (N) 2,127 5.7 -9.4°
Maximum altitude 16:21:55 59° 85° (E) 837 3.4 -10.2°
Drops below altitude 10° 16:26:59 10° 165° (SSE) 2,313 5.9 -11.1°
Sets 16:29:28 0° 169° (S) 3,288 6.7 -11.5°
